Location: Killam
(52.7910°N, 111.8608°W)
Time: 05:14:37
(UTC+00:00)

Gurwin Techsat 1B - Pass Details

Date: 15 March 2026
Orbit: 809 x 812 km, 99.0° (Epoch: 15 April)

Event Time Altitude Azimuth Distance (km) Brightness Sun altitude
Rises 12:28:17 0° 18° (NNE) 3,344 12.3 -11.8°
Reaches altitude 10° 12:30:41 10° 22° (NNE) 2,407 11.6 -11.5°
Maximum altitude 12:35:56 58° 102° (ESE) 942 9.3 -10.7°
Drops below altitude 10° 12:41:08 10° 181° (S) 2,389 10.9 -9.9°
Sets 12:43:30 0° 186° (S) 3,316 11.6 -9.6°
